Location: Killarney Provincial Park Observatory
(46.0124°N, 81.4000°W)
Time: 17:18:28
(UTC-04:00)

Iridium 22 - Visible Passes

Search period start: 01 April 2015 00:00
Search period end: 11 April 2015 00:00
Orbit: 776 x 779 km, 86.4° (Epoch: 01 April)

Date Brightness Start Highest point End Pass type
(mag) Time Alt. Az. Time Alt. Az. Time Alt. Az.
01 Apr 5.6 04:24:28 58° SSE 04:25:23 71° E 04:30:37 10° N visible
01 Apr 7.1 06:04:57 14° W 06:06:48 16° WNW 06:09:54 10° NNW visible
02 Apr 6.6 03:51:12 38° ESE 03:51:57 40° E 03:56:50 10° NNE visible
02 Apr 6.5 05:31:40 25° W 05:32:52 27° WNW 05:37:15 10° NNW visible
03 Apr 7.4 03:17:54 23° E 03:18:38 23° E 03:22:45 10° NNE visible
03 Apr 5.8 04:58:23 44° WSW 04:59:06 47° W 05:04:08 10° N visible
04 Apr 8.0 02:44:36 13° E 02:45:23 13° ENE 02:47:59 10° NE visible
04 Apr 5.3 04:25:05 75° SSW 04:25:28 83° W 04:30:44 10° N visible
04 Apr 7.4 06:05:33 10° W 06:07:13 11° WNW 06:08:43 10° NW visible
05 Apr 5.9 03:51:45 56° E 03:51:58 57° E 03:57:06 10° N visible
05 Apr 6.9 05:32:14 19° W 05:33:11 20° WNW 05:36:54 10° NNW visible
06 Apr 6.9 03:18:25 32° E 03:18:35 32° E 03:23:13 10° NNE visible
06 Apr 6.2 04:58:54 33° W 04:59:19 33° WNW 05:04:01 10° NNW visible
07 Apr 7.6 02:45:04 19° E 02:45:18 19° E 02:48:57 10° NE visible
07 Apr 5.5 04:25:33 59° W 04:25:36 59° W 04:30:47 10° N visible
08 Apr 8.2 02:11:43 10° E 02:12:06 10° ENE 02:13:14 10° ENE visible
08 Apr 5.5 03:52:11 79° ENE 03:52:11 79° ENE 03:57:17 10° N visible
08 Apr 7.3 05:32:39 14° W 05:33:34 14° WNW 05:36:14 10° NW visible
09 Apr 6.4 03:18:48 45° E 03:18:48 45° E 03:23:34 10° NNE visible
09 Apr 6.7 04:59:17 24° W 04:59:36 24° WNW 05:03:47 10° NNW visible
10 Apr 7.2 02:45:26 26° ENE 02:45:26 26° ENE 02:49:33 10° NNE visible
10 Apr 6.0 04:25:54 41° WNW 04:25:54 41° WNW 04:30:44 10° N visible
